Fort Worth Alliance Airport Fort Worth US
ICAO: KAFW
IATA: AFW
Category: Large
Scheduled Services: No

Elevation: 722 ft
TransAlt. 18000 ft.

Airport Communications:
RGNL APP/DEP:118.1
ASOS:126.925
ATIS:126.925
CLNC DEL:128.725
GND:132.65
ALLIANCE TWR:120.825

KAFW Zoom In..

If you have problems with the map follow the link
https://www.worldairports.se/pages/airport.php?
ICAO=KAFW

Runways:

(A) RW 16L length 9600 ft width 150 ft
ILS 110.15 / hdg 163

(B) RW 16R length 8220 ft width 150 ft
---- / hdg 163

(C) RW 34L length 8220 ft width 150 ft
---- / hdg 343

(D) RW 34R length 9600 ft width 150 ft
ILS 110.15 / hdg 343

Location; KAFW
Day. 17 / Time. 01.53 Zulu
* Altimeter: 30.06
* Temperature: 13° c. 55.4°f.
* Wind from: 170° Speed 08 kn.
Dewpoint: 03° c.
Visibility: 10 Statute Miles.
Clouds: Clear (automated report).

KAFW 170153Z 17008KT 10SM CLR 13/03 A3006 RMK AO2 SLP180 T01280028 $


Wind From 170°
Speed 08 kn.

 
 
jpsmedia.com for Web Design worldairports.se 2018   terms of use